GW3496 Weather Reports


Display with metric or nautical units.
time (UTC)temp
F
wind
direction
speed
MPH
gust
MPH
rain 1hr
in
rain 24hr
in
rain mn
in
humidity
%
barometer
mb
20260902123053 80 47 3.0 5.0 0.00 0.00 0.00 82 1015.8
20260902121558 79 11 0.0 0.0 0.00 0.00 0.00 82 1016.1
20260902120052 79 15 0.0 0.0 0.00 0.00 0.00 82 1015.9
20260902114549 78 355 0.0 0.0 0.00 0.00 0.00 83 1015.9
20260902113047 77 340 0.0 0.0 0.00 0.00 0.00 83 1015.8
20260902111542 78 28 0.0 0.0 0.00 0.00 0.00 83 1015.7
20260902110049 78 345 0.0 0.0 0.00 0.00 0.00 82 1015.6
20260902104551 78 338 0.0 1.0 0.00 0.00 0.00 81 1015.5
20260902103047 78 355 0.0 0.0 0.00 0.00 0.00 81 1015.5
20260902101555 78 355 0.0 0.0 0.00 0.00 0.00 81 1015.1
20260902100050 78 340 0.0 0.0 0.00 0.00 0.00 81 1015.1
20260902094549 79 22 0.0 0.0 0.00 0.00 0.00 81 1015.2
20260902093123 79 360 1.0 3.0 0.00 0.00 0.00 81 1014.9
20260902091554 80 338 0.0 0.0 0.00 0.00 0.00 78 1014.8
20260902090056 80 112 0.0 0.0 0.00 0.00 0.00 78 1015.1
20260902084557 79 294 0.0 1.0 0.00 0.00 0.00 78 1015.0
20260902083055 79 250 0.0 0.0 0.00 0.00 0.00 78 1014.9
20260902081610 79 309 0.0 4.0 0.00 0.00 0.00 80 1014.9
20260902080051 79 328 0.0 2.0 0.00 0.00 0.00 82 1015.0
20260902074559 80 5 0.0 3.0 0.00 0.00 0.00 81 1014.9
20260902073053 80 9 0.0 4.0 0.00 0.00 0.00 76 1015.0
20260902071602 81 355 0.0 1.0 0.00 0.00 0.00 79 1015.0
20260902070053 81 360 0.0 0.0 0.00 0.00 0.00 81 1015.0
20260902064614 81 13 0.0 1.0 0.00 0.00 0.00 77 1014.4
20260902063058 82 323 0.0 0.0 0.00 0.00 0.00 78 1014.5
20260902061559 82 85 0.0 1.0 0.00 0.00 0.00 80 1014.4
20260902060042 83 67 0.0 3.0 0.00 0.00 0.00 77 1014.4
20260902054721 83 317 2.0 5.0 0.00 0.00 0.00 75 1014.3
20260902053052 83 301 0.0 2.0 0.00 0.00 0.00 75 1014.3
20260902051546 83 259 2.0 8.0 0.00 0.00 0.00 75 1014.4
20260902050108 83 5 0.0 0.0 0.00 0.00 0.00 77 1014.6
20260902044606 83 275 0.0 0.0 0.00 0.00 0.00 78 1014.6
20260902043050 83 311 0.0 0.0 0.00 0.00 0.00 78 1014.6
20260902041546 84 355 0.0 0.0 0.00 0.00 0.00 78 1014.6
20260902040055 84 308 0.0 0.0 0.00 0.00 0.00 77 1014.4
20260902034600 84 308 0.0 1.0 0.00 0.00 0.00 76 1014.3
20260902033103 84 251 1.0 4.0 0.00 0.00 0.00 75 1014.0
20260902031547 85 279 3.0 7.0 0.00 0.00 0.00 74 1013.9
20260902030055 85 313 2.0 6.0 0.00 0.00 0.00 73 1013.7
20260902024552 86 265 2.0 5.0 0.00 0.00 0.00 71 1013.9
20260902023053 87 319 1.0 4.0 0.00 0.00 0.00 70 1013.7
20260902021551 87 314 2.0 5.0 0.00 0.00 0.00 69 1013.6
20260902020043 87 266 1.0 5.0 0.00 0.00 0.00 69 1013.6
20260902014553 87 255 4.0 8.0 0.00 0.00 0.00 70 1013.6
20260902013050 87 284 2.0 8.0 0.00 0.00 0.00 70 1013.5
20260902011549 87 228 4.0 7.0 0.00 0.00 0.00 70 1013.2
20260902010045 88 254 6.0 9.0 0.00 0.00 0.00 69 1012.6
20260902004555 89 282 3.0 8.0 0.00 0.00 0.00 67 1012.7
20260902003053 89 209 4.0 9.0 0.00 0.00 0.00 66 1012.4
20260902001550 90 194 5.0 9.0 0.00 0.00 0.00 65 1012.4
20260902000104 91 194 4.0 7.0 0.00 0.00 0.00 62 1012.4
20260901234543 91 193 4.0 9.0 0.00 0.00 0.00 61 1012.4
20260901233053 92 198 3.0 6.0 0.00 0.00 0.00 59 1012.4
20260901231551 93 233 1.0 7.0 0.00 0.00 0.00 58 1012.6
20260901230051 93 232 3.0 7.0 0.00 0.00 0.00 56 1012.6
20260901224548 94 207 5.0 8.0 0.00 0.00 0.00 54 1012.9
20260901223047 94 248 4.0 8.0 0.00 0.00 0.00 54 1013.1
20260901221556 94 243 4.0 8.0 0.00 0.00 0.00 54 1013.2
20260901220100 94 250 5.0 10.0 0.00 0.00 0.00 54 1013.3
20260901214550 94 142 8.0 13.0 0.00 0.00 0.00 55 1013.1
20260901213107 95 261 8.0 11.0 0.00 0.00 0.00 55 1013.2
20260901211543 95 176 6.0 10.0 0.00 0.00 0.00 55 1013.3
20260901204603 94 271 6.0 10.0 0.00 0.00 0.00 55 1013.5
20260901203056 94 263 8.0 12.0 0.00 0.00 0.00 55 1013.5
20260901201553 94 254 6.0 11.0 0.00 0.00 0.00 55 1013.8
20260901200057 95 281 6.0 12.0 0.00 0.00 0.00 54 1013.8
20260901194559 95 312 6.0 14.0 0.00 0.00 0.00 55 1014.0
20260901193056 94 308 3.0 10.0 0.00 0.00 0.00 56 1014.4
20260901191604 94 328 3.0 10.0 0.00 0.00 0.00 56 1014.5
20260901184600 93 292 7.0 12.0 0.00 0.00 0.00 57 1014.3
20260901183056 94 246 4.0 12.0 0.00 0.00 0.00 56 1014.7
20260901181607 94 90 5.0 14.0 0.00 0.00 0.00 57 1014.6
20260901180100 93 256 3.0 11.0 0.00 0.00 0.00 57 1014.9
20260901174604 93 301 8.0 14.0 0.00 0.00 0.00 57 1014.7
20260901173052 93 234 6.0 11.0 0.00 0.00 0.00 58 1014.8
20260901171614 93 273 3.0 13.0 0.00 0.00 0.00 57 1014.7
20260901170108 92 265 6.0 10.0 0.00 0.00 0.00 58 1014.7
20260901164619 92 309 4.0 9.0 0.00 0.00 0.00 58 1014.9
20260901163100 92 285 4.0 8.0 0.00 0.00 0.00 59 1015.0
20260901161604 92 291 2.0 8.0 0.00 0.00 0.00 59 1015.3
20260901160108 91 202 5.0 10.0 0.00 0.00 0.00 56 1015.4
20260901154606 91 13 3.0 8.0 0.00 0.00 0.00 55 1015.4
20260901153103 90 216 1.0 6.0 0.00 0.00 0.00 62 1015.8
20260901151602 88 306 0.0 4.0 0.00 0.00 0.00 67 1015.9
20260901150036 87 289 5.0 9.0 0.00 0.00 0.00 67 1015.8
20260901144535 86 250 4.0 9.0 0.00 0.00 0.00 69 1016.0
20260901143034 86 273 6.0 9.0 0.00 0.00 0.00 70 1016.2
20260901141539 85 269 3.0 8.0 0.00 0.00 0.00 72 1015.9
20260901140034 83 273 3.0 8.0 0.00 0.00 0.00 74 1015.7
20260901134534 82 252 1.0 4.0 0.00 0.00 0.00 78 1015.5
20260901133035 80 236 5.0 8.0 0.00 0.00 0.00 81 1015.8
20260901131545 79 252 1.0 7.0 0.00 0.00 0.00 82 1015.8
20260901130037 79 236 3.0 9.0 0.00 0.00 0.00 82 1015.8
20260901124541 79 246 4.0 9.0 0.00 0.00 0.00 82 1015.8